Time,TemperatureF,DewpointF,PressureIn,WindDirection,WindDirectionDegrees,WindSpeedMPH,WindSpeedGustMPH,Humidity,HourlyPrecipIn,Conditions,Clouds,dailyrainin,SoftwareType,DateUTC
2013-07-05 00:00:00,72.7,68.6,30.09,NNW,345,0.0,0.0,87,0.00,,,0.00,WeatherCatV1.15B25,2013-07-05 04:00:00,
2013-07-05 00:01:00,72.7,68.6,30.09,NNW,345,0.0,0.0,87,0.00,,,0.00,WeatherCatV1.15B25,2013-07-05 04:01:00,
2013-07-05 00:02:00,72.7,68.6,30.09,NNW,345,0.0,0.0,87,0.00,,,0.00,WeatherCatV1.15B25,2013-07-05 04:02:00,
2013-07-05 00:04:00,72.7,68.9,30.10,NNW,345,0.0,0.0,88,0.00,,,0.00,WeatherCatV1.15B25,2013-07-05 04:04:00,
2013-07-05 00:09:00,72.7,68.9,30.09,NNW,345,0.0,0.0,88,0.00,,,0.00,WeatherCatV1.15B25,2013-07-05 04:09:00,
2013-07-05 00:14:00,72.7,68.9,30.09,NNW,345,0.0,0.0,88,0.00,,,0.00,WeatherCatV1.15B25,2013-07-05 04:14:00,
2013-07-05 00:19:00,72.7,68.9,30.10,NNW,345,0.0,0.0,88,0.00,,,0.00,WeatherCatV1.15B25,2013-07-05 04:19:00,
2013-07-05 00:24:00,72.6,68.8,30.10,NNW,345,0.0,0.0,88,0.00,,,0.00,WeatherCatV1.15B25,2013-07-05 04:24:00,
2013-07-05 00:29:00,72.6,68.8,30.09,NNW,345,0.0,0.0,88,0.00,,,0.00,WeatherCatV1.15B25,2013-07-05 04:29:00,
2013-07-05 00:34:00,72.6,68.8,30.09,NNW,345,0.0,0.0,88,0.00,,,0.00,WeatherCatV1.15B25,2013-07-05 04:34:00,
2013-07-05 00:39:00,72.6,68.8,30.09,NNW,345,0.0,0.0,88,0.00,,,0.00,WeatherCatV1.15B25,2013-07-05 04:39:00,
2013-07-05 00:44:00,72.4,68.6,30.09,NNW,345,0.0,0.0,88,0.00,,,0.00,WeatherCatV1.15B25,2013-07-05 04:44:00,
2013-07-05 00:49:00,72.4,68.6,30.09,NNW,345,0.0,0.0,88,0.00,,,0.00,WeatherCatV1.15B25,2013-07-05 04:49:00,
2013-07-05 00:54:00,72.3,68.5,30.09,NNW,345,0.0,0.0,88,0.00,,,0.00,WeatherCatV1.15B25,2013-07-05 04:54:00,
2013-07-05 00:59:00,72.1,68.3,30.09,NNW,345,0.0,0.0,88,0.00,,,0.00,WeatherCatV1.15B25,2013-07-05 04:59:00,
2013-07-05 01:04:00,72.0,68.2,30.09,NNW,345,0.0,0.0,88,0.00,,,0.00,WeatherCatV1.15B25,2013-07-05 05:04:00,
2013-07-05 01:09:00,72.0,68.2,30.09,NNW,345,0.0,0.0,88,0.00,,,0.00,WeatherCatV1.15B25,2013-07-05 05:09:00,
2013-07-05 01:14:00,71.9,68.1,30.09,NNW,345,0.0,0.0,88,0.00,,,0.00,WeatherCatV1.15B25,2013-07-05 05:14:00,
2013-07-05 01:19:00,71.8,68.0,30.09,NNW,345,0.0,0.0,88,0.00,,,0.00,WeatherCatV1.15B25,2013-07-05 05:19:00,
2013-07-05 01:24:00,71.7,67.9,30.09,NNW,345,0.0,0.0,88,0.00,,,0.00,WeatherCatV1.15B25,2013-07-05 05:24:00,
2013-07-05 01:29:00,71.5,67.8,30.09,NNW,345,0.0,0.0,88,0.00,,,0.00,WeatherCatV1.15B25,2013-07-05 05:29:00,
2013-07-05 01:34:00,71.4,67.7,30.09,NNW,345,0.0,0.0,88,0.00,,,0.00,WeatherCatV1.15B25,2013-07-05 05:34:00,
2013-07-05 01:39:00,71.3,67.6,30.09,NNW,345,0.0,0.0,88,0.00,,,0.00,WeatherCatV1.15B25,2013-07-05 05:39:00,
2013-07-05 01:44:00,71.3,67.9,30.09,NNW,345,0.0,0.0,89,0.00,,,0.00,WeatherCatV1.15B25,2013-07-05 05:44:00,
2013-07-05 01:49:00,71.3,67.9,30.09,NNW,345,0.0,0.0,89,0.00,,,0.00,WeatherCatV1.15B25,2013-07-05 05:49:00,
2013-07-05 01:54:00,71.3,67.9,30.09,NNW,345,0.0,0.0,89,0.00,,,0.00,WeatherCatV1.15B25,2013-07-05 05:54:00,
2013-07-05 01:59:00,71.3,67.9,30.09,NNW,345,0.0,0.0,89,0.00,,,0.00,WeatherCatV1.15B25,2013-07-05 05:59:00,
2013-07-05 02:04:00,71.2,67.8,30.09,NNW,345,0.0,0.0,89,0.00,,,0.00,WeatherCatV1.15B25,2013-07-05 06:04:00,
2013-07-05 02:09:00,71.3,67.9,30.09,NNW,345,0.0,0.0,89,0.00,,,0.00,WeatherCatV1.15B25,2013-07-05 06:09:00,
2013-07-05 02:14:00,71.2,67.8,30.09,NNW,345,0.0,0.0,89,0.00,,,0.00,WeatherCatV1.15B25,2013-07-05 06:14:00,
2013-07-05 02:19:00,71.2,67.8,30.09,NNW,345,0.0,0.0,89,0.00,,,0.00,WeatherCatV1.15B25,2013-07-05 06:19:00,
2013-07-05 02:24:00,71.1,67.7,30.09,NNW,345,0.0,0.0,89,0.00,,,0.00,WeatherCatV1.15B25,2013-07-05 06:24:00,
2013-07-05 02:29:00,71.0,67.6,30.09,NNW,345,0.0,0.0,89,0.00,,,0.00,WeatherCatV1.15B25,2013-07-05 06:29:00,
2013-07-05 02:34:00,71.0,67.6,30.09,NNW,345,0.0,0.0,89,0.00,,,0.00,WeatherCatV1.15B25,2013-07-05 06:34:00,
2013-07-05 02:39:00,70.9,67.5,30.08,NNW,345,0.0,0.0,89,0.00,,,0.00,WeatherCatV1.15B25,2013-07-05 06:39:00,
2013-07-05 02:44:00,70.8,67.4,30.08,NNW,345,0.0,0.0,89,0.00,,,0.00,WeatherCatV1.15B25,2013-07-05 06:44:00,
2013-07-05 02:49:00,70.8,67.4,30.08,NNW,345,0.0,0.0,89,0.00,,,0.00,WeatherCatV1.15B25,2013-07-05 06:49:00,
2013-07-05 02:54:00,70.8,67.7,30.08,NNW,345,0.0,0.0,90,0.00,,,0.00,WeatherCatV1.15B25,2013-07-05 06:54:00,
2013-07-05 02:59:00,70.9,67.8,30.08,NNW,345,0.0,0.0,90,0.00,,,0.00,WeatherCatV1.15B25,2013-07-05 06:59:00,
2013-07-05 03:04:00,70.9,67.8,30.08,NNW,345,0.0,0.0,90,0.00,,,0.00,WeatherCatV1.15B25,2013-07-05 07:04:00,
2013-07-05 03:09:00,70.8,67.7,30.08,NNW,345,0.0,0.0,90,0.00,,,0.00,WeatherCatV1.15B25,2013-07-05 07:09:00,
2013-07-05 03:14:00,70.8,67.7,30.08,NNW,345,0.0,0.0,90,0.00,,,0.00,WeatherCatV1.15B25,2013-07-05 07:14:00,
2013-07-05 03:19:00,70.8,67.7,30.08,NNW,345,0.0,0.0,90,0.00,,,0.00,WeatherCatV1.15B25,2013-07-05 07:19:00,
2013-07-05 03:24:00,70.7,67.6,30.08,NNW,345,0.0,0.0,90,0.00,,,0.00,WeatherCatV1.15B25,2013-07-05 07:24:00,
2013-07-05 03:29:00,70.7,67.6,30.08,NNW,345,0.0,0.0,90,0.00,,,0.00,WeatherCatV1.15B25,2013-07-05 07:29:00,
2013-07-05 03:34:00,70.7,67.6,30.07,NNW,345,0.0,0.0,90,0.00,,,0.00,WeatherCatV1.15B25,2013-07-05 07:34:00,
2013-07-05 03:39:00,70.7,67.6,30.07,NNW,345,0.0,0.0,90,0.00,,,0.00,WeatherCatV1.15B25,2013-07-05 07:39:00,
2013-07-05 03:44:00,70.7,67.6,30.07,NNW,345,0.0,0.0,90,0.00,,,0.00,WeatherCatV1.15B25,2013-07-05 07:44:00,
2013-07-05 03:49:00,70.6,67.5,30.07,NNW,345,0.0,0.0,90,0.00,,,0.00,WeatherCatV1.15B25,2013-07-05 07:49:00,
2013-07-05 03:54:00,70.6,67.5,30.07,NNW,345,0.0,0.0,90,0.00,,,0.00,WeatherCatV1.15B25,2013-07-05 07:54:00,
2013-07-05 03:59:00,70.6,67.5,30.07,NNW,345,0.0,0.0,90,0.00,,,0.00,WeatherCatV1.15B25,2013-07-05 07:59:00,
2013-07-05 04:04:00,70.7,67.6,30.07,NNW,345,0.0,0.0,90,0.00,,,0.00,WeatherCatV1.15B25,2013-07-05 08:04:00,
2013-07-05 04:09:00,70.6,67.5,30.07,NNW,345,0.0,0.0,90,0.00,,,0.00,WeatherCatV1.15B25,2013-07-05 08:09:00,
2013-07-05 04:14:00,70.6,67.5,30.07,NNW,345,0.0,0.0,90,0.00,,,0.00,WeatherCatV1.15B25,2013-07-05 08:14:00,
2013-07-05 04:19:00,70.6,67.5,30.07,NNW,345,0.0,0.0,90,0.00,,,0.00,WeatherCatV1.15B25,2013-07-05 08:19:00,
2013-07-05 04:24:00,70.6,67.5,30.07,NNW,345,0.0,0.0,90,0.00,,,0.00,WeatherCatV1.15B25,2013-07-05 08:24:00,
2013-07-05 04:29:00,70.7,67.6,30.07,NNW,345,0.0,0.0,90,0.00,,,0.00,WeatherCatV1.15B25,2013-07-05 08:29:00,
2013-07-05 04:34:00,70.7,67.6,30.07,NNW,345,0.0,0.0,90,0.00,,,0.00,WeatherCatV1.15B25,2013-07-05 08:34:00,
2013-07-05 04:39:00,70.8,68.0,30.08,NNW,345,0.0,0.0,91,0.00,,,0.00,WeatherCatV1.15B25,2013-07-05 08:39:00,
2013-07-05 04:44:00,71.0,68.2,30.09,West,277,1.0,3.0,91,0.00,,,0.01,WeatherCatV1.15B25,2013-07-05 08:44:00,
2013-07-05 04:49:00,71.0,68.2,30.10,West,276,0.0,0.0,91,2.43,,,0.13,WeatherCatV1.15B25,2013-07-05 08:49:00,
2013-07-05 04:54:00,71.0,68.2,30.09,West,277,0.0,0.0,91,0.51,,,0.20,WeatherCatV1.15B25,2013-07-05 08:54:00,
2013-07-05 05:00:00,70.9,68.1,30.08,West,276,0.0,0.0,91,0.29,,,0.23,WeatherCatV1.15B25,2013-07-05 09:00:00,
2013-07-05 05:05:00,70.9,68.1,30.09,West,276,0.0,0.0,91,0.28,,,0.25,WeatherCatV1.15B25,2013-07-05 09:05:00,
2013-07-05 05:10:00,70.9,68.1,30.08,West,277,0.0,0.0,91,0.10,,,0.26,WeatherCatV1.15B25,2013-07-05 09:10:00,
2013-07-05 05:17:00,70.9,68.1,30.08,West,277,0.0,0.0,91,0.08,,,0.26,WeatherCatV1.15B25,2013-07-05 09:17:00,
2013-07-05 05:22:00,70.9,68.1,30.07,West,277,0.0,0.0,91,0.05,,,0.26,WeatherCatV1.15B25,2013-07-05 09:22:00,
2013-07-05 05:28:00,70.9,68.1,30.07,West,277,0.0,0.0,91,0.00,,,0.26,WeatherCatV1.15B25,2013-07-05 09:28:00,
2013-07-05 05:33:00,70.9,68.1,30.08,West,277,0.0,0.0,91,0.00,,,0.27,WeatherCatV1.15B25,2013-07-05 09:33:00,
2013-07-05 05:38:00,70.8,68.0,30.07,West,277,0.0,0.0,91,0.00,,,0.27,WeatherCatV1.15B25,2013-07-05 09:38:00,
2013-07-05 05:43:00,70.8,68.0,30.07,West,276,0.0,0.0,91,0.00,,,0.27,WeatherCatV1.15B25,2013-07-05 09:43:00,
2013-07-05 05:49:00,70.7,67.9,30.07,West,276,0.0,0.0,91,0.00,,,0.27,WeatherCatV1.15B25,2013-07-05 09:49:00,
2013-07-05 05:55:00,70.7,67.9,30.07,West,276,0.0,0.0,91,0.00,,,0.27,WeatherCatV1.15B25,2013-07-05 09:55:00,
2013-07-05 06:00:00,70.7,67.9,30.08,West,277,0.0,0.0,91,0.00,,,0.27,WeatherCatV1.15B25,2013-07-05 10:00:00,
2013-07-05 06:05:00,70.6,68.2,30.08,West,276,0.0,0.0,92,0.00,,,0.27,WeatherCatV1.15B25,2013-07-05 10:05:00,
2013-07-05 06:10:00,70.5,68.1,30.08,West,277,0.0,0.0,92,0.00,,,0.27,WeatherCatV1.15B25,2013-07-05 10:10:00,
2013-07-05 06:15:00,70.5,67.7,30.07,West,277,0.0,0.0,91,0.00,,,0.27,WeatherCatV1.15B25,2013-07-05 10:15:00,
2013-07-05 06:20:00,70.5,68.1,30.07,West,277,0.0,0.0,92,0.00,,,0.27,WeatherCatV1.15B25,2013-07-05 10:20:00,
2013-07-05 06:25:00,70.5,68.1,30.08,West,277,0.0,0.0,92,0.00,,,0.27,WeatherCatV1.15B25,2013-07-05 10:25:00,
2013-07-05 06:30:00,70.5,68.1,30.08,West,276,0.0,0.0,92,0.00,,,0.27,WeatherCatV1.15B25,2013-07-05 10:30:00,
2013-07-05 06:36:00,70.6,68.2,30.07,West,276,0.0,0.0,92,0.00,,,0.27,WeatherCatV1.15B25,2013-07-05 10:36:00,
2013-07-05 06:41:00,70.6,68.2,30.07,West,277,0.0,0.0,92,0.00,,,0.27,WeatherCatV1.15B25,2013-07-05 10:41:00,
2013-07-05 06:46:00,70.7,68.3,30.07,West,277,0.0,0.0,92,0.00,,,0.27,WeatherCatV1.15B25,2013-07-05 10:46:00,
2013-07-05 06:51:00,70.7,68.3,30.07,NW,306,0.0,0.0,92,0.00,,,0.27,WeatherCatV1.15B25,2013-07-05 10:51:00,
2013-07-05 06:57:00,70.7,68.3,30.07,NW,306,0.0,0.0,92,0.00,,,0.27,WeatherCatV1.15B25,2013-07-05 10:57:00,
2013-07-05 07:02:00,70.8,68.4,30.07,NW,306,0.0,0.0,92,0.00,,,0.27,WeatherCatV1.15B25,2013-07-05 11:02:00,
2013-07-05 07:07:00,70.8,68.4,30.07,NW,306,0.0,0.0,92,0.00,,,0.27,WeatherCatV1.15B25,2013-07-05 11:07:00,
2013-07-05 07:12:00,70.9,68.5,30.07,NW,306,0.0,0.0,92,0.00,,,0.27,WeatherCatV1.15B25,2013-07-05 11:12:00,
2013-07-05 07:17:00,70.9,68.5,30.07,NW,306,0.0,0.0,92,0.00,,,0.27,WeatherCatV1.15B25,2013-07-05 11:17:00,
2013-07-05 07:22:00,70.9,68.5,30.07,NW,306,0.0,0.0,92,0.00,,,0.27,WeatherCatV1.15B25,2013-07-05 11:22:00,
2013-07-05 07:27:00,70.9,68.5,30.07,NW,306,0.0,0.0,92,0.00,,,0.27,WeatherCatV1.15B25,2013-07-05 11:27:00,
2013-07-05 07:32:00,70.9,68.5,30.07,NW,306,0.0,0.0,92,0.00,,,0.27,WeatherCatV1.15B25,2013-07-05 11:32:00,
2013-07-05 07:37:00,71.0,68.6,30.07,NW,306,0.0,0.0,92,0.00,,,0.27,WeatherCatV1.15B25,2013-07-05 11:37:00,
2013-07-05 07:42:00,71.1,68.7,30.07,NW,306,0.0,0.0,92,0.00,,,0.27,WeatherCatV1.15B25,2013-07-05 11:42:00,
2013-07-05 07:48:00,71.3,68.8,30.07,NW,306,0.0,0.0,92,0.00,,,0.27,WeatherCatV1.15B25,2013-07-05 11:48:00,
2013-07-05 07:53:00,71.4,68.9,30.08,NW,306,0.0,0.0,92,0.00,,,0.27,WeatherCatV1.15B25,2013-07-05 11:53:00,
2013-07-05 07:58:00,71.4,68.9,30.08,NW,306,0.0,0.0,92,0.00,,,0.27,WeatherCatV1.15B25,2013-07-05 11:58:00,
2013-07-05 08:03:00,71.3,68.8,30.08,NW,306,0.0,0.0,92,0.00,,,0.27,WeatherCatV1.15B25,2013-07-05 12:03:00,
2013-07-05 08:09:00,71.4,68.9,30.08,NW,306,0.0,0.0,92,0.00,,,0.27,WeatherCatV1.15B25,2013-07-05 12:09:00,
2013-07-05 08:14:00,71.4,68.9,30.08,NW,306,0.0,0.0,92,0.00,,,0.27,WeatherCatV1.15B25,2013-07-05 12:14:00,
2013-07-05 08:19:00,71.5,69.4,30.08,NW,306,0.0,0.0,93,0.00,,,0.27,WeatherCatV1.15B25,2013-07-05 12:19:00,
2013-07-05 08:24:00,71.7,69.6,30.08,NW,306,0.0,0.0,93,0.00,,,0.27,WeatherCatV1.15B25,2013-07-05 12:24:00,
2013-07-05 08:29:00,71.9,69.8,30.08,NW,306,0.0,0.0,93,0.00,,,0.27,WeatherCatV1.15B25,2013-07-05 12:29:00,
2013-07-05 08:34:00,72.1,70.0,30.08,NW,313,0.0,0.0,93,0.00,,,0.27,WeatherCatV1.15B25,2013-07-05 12:34:00,
2013-07-05 08:40:00,72.0,69.9,30.07,SE,137,0.0,1.0,93,0.00,,,0.27,WeatherCatV1.15B25,2013-07-05 12:40:00,
2013-07-05 08:45:00,72.5,70.4,30.07,SE,137,0.0,0.0,93,0.00,,,0.27,WeatherCatV1.15B25,2013-07-05 12:45:00,
2013-07-05 08:52:00,72.7,70.6,30.08,ESE,109,0.0,0.0,93,0.00,,,0.27,WeatherCatV1.15B25,2013-07-05 12:52:00,
2013-07-05 08:57:00,72.9,70.8,30.08,ESE,109,0.0,0.0,93,0.00,,,0.27,WeatherCatV1.15B25,2013-07-05 12:57:00,
2013-07-05 09:02:00,72.9,70.8,30.07,ESE,109,0.0,0.0,93,0.00,,,0.27,WeatherCatV1.15B25,2013-07-05 13:02:00,
2013-07-05 09:07:00,72.9,70.8,30.07,ESE,109,0.0,0.0,93,0.00,,,0.27,WeatherCatV1.15B25,2013-07-05 13:07:00,
2013-07-05 09:12:00,72.9,70.4,30.08,SW,225,0.0,0.0,92,0.00,,,0.27,WeatherCatV1.15B25,2013-07-05 13:12:00,
2013-07-05 09:17:00,73.1,70.6,30.08,SW,225,0.0,0.0,92,0.00,,,0.27,WeatherCatV1.15B25,2013-07-05 13:17:00,
2013-07-05 09:22:00,73.2,70.7,30.08,ESE,113,0.0,1.0,92,0.00,,,0.27,WeatherCatV1.15B25,2013-07-05 13:22:00,
2013-07-05 09:27:00,73.1,70.6,30.08,NW,317,0.0,2.0,92,0.00,,,0.27,WeatherCatV1.15B25,2013-07-05 13:27:00,
2013-07-05 09:32:00,73.1,70.6,30.08,SE,129,0.0,2.0,92,0.00,,,0.27,WeatherCatV1.15B25,2013-07-05 13:32:00,
2013-07-05 09:37:00,73.2,70.7,30.08,SE,129,0.0,0.0,92,0.00,,,0.27,WeatherCatV1.15B25,2013-07-05 13:37:00,
2013-07-05 09:42:00,73.4,70.9,30.08,SE,129,0.0,1.0,92,0.00,,,0.27,WeatherCatV1.15B25,2013-07-05 13:42:00,
2013-07-05 09:47:00,73.4,70.9,30.08,NW,324,0.0,0.0,92,0.00,,,0.27,WeatherCatV1.15B25,2013-07-05 13:47:00,
2013-07-05 09:52:00,73.7,71.2,30.08,SSW,209,0.0,0.0,92,0.00,,,0.27,WeatherCatV1.15B25,2013-07-05 13:52:00,
2013-07-05 09:57:00,73.6,71.1,30.08,South,178,0.0,1.0,92,0.00,,,0.27,WeatherCatV1.15B25,2013-07-05 13:57:00,
2013-07-05 10:02:00,73.7,70.9,30.08,SSW,210,0.0,1.0,91,0.00,,,0.27,WeatherCatV1.15B25,2013-07-05 14:02:00,
2013-07-05 10:07:00,74.4,71.6,30.07,SE,128,0.0,2.0,91,0.00,,,0.27,WeatherCatV1.15B25,2013-07-05 14:07:00,
2013-07-05 10:13:00,74.9,72.1,30.08,SE,128,0.0,2.0,91,0.00,,,0.27,WeatherCatV1.15B25,2013-07-05 14:13:00,
2013-07-05 10:18:00,75.6,72.8,30.07,South,177,2.0,2.0,91,0.00,,,0.27,WeatherCatV1.15B25,2013-07-05 14:18:00,
2013-07-05 10:23:00,75.8,72.3,30.08,West,263,0.0,3.0,89,0.00,,,0.27,WeatherCatV1.15B25,2013-07-05 14:23:00,
2013-07-05 10:29:00,76.2,72.4,30.07,SE,126,1.0,6.0,88,0.00,,,0.27,WeatherCatV1.15B25,2013-07-05 14:29:00,
2013-07-05 10:34:00,76.6,72.4,30.08,SE,126,0.0,1.0,87,0.00,,,0.27,WeatherCatV1.15B25,2013-07-05 14:34:00,
2013-07-05 10:39:00,77.2,73.0,30.07,ESE,107,1.0,3.0,87,0.00,,,0.27,WeatherCatV1.15B25,2013-07-05 14:39:00,
2013-07-05 10:44:00,77.6,72.4,30.08,ESE,113,2.0,4.0,84,0.00,,,0.27,WeatherCatV1.15B25,2013-07-05 14:44:00,
2013-07-05 10:50:00,77.4,71.5,30.07,South,182,1.0,3.0,82,0.00,,,0.27,WeatherCatV1.15B25,2013-07-05 14:50:00,
2013-07-05 10:55:00,77.5,71.9,30.08,SE,130,1.0,3.0,83,0.00,,,0.27,WeatherCatV1.15B25,2013-07-05 14:55:00,
2013-07-05 11:00:00,77.4,71.5,30.08,South,188,2.0,2.0,82,0.00,,,0.27,WeatherCatV1.15B25,2013-07-05 15:00:00,
2013-07-05 11:06:00,77.6,72.0,30.08,SSE,161,1.0,1.0,83,0.00,,,0.27,WeatherCatV1.15B25,2013-07-05 15:06:00,
2013-07-05 11:11:00,77.4,71.5,30.08,South,187,0.0,0.0,82,0.00,,,0.27,WeatherCatV1.15B25,2013-07-05 15:11:00,
2013-07-05 11:16:00,77.0,70.7,30.08,SSW,203,0.0,4.0,81,0.00,,,0.27,WeatherCatV1.15B25,2013-07-05 15:16:00,
2013-07-05 11:22:00,77.8,71.1,30.08,SSW,198,2.0,5.0,80,0.00,,,0.27,WeatherCatV1.15B25,2013-07-05 15:22:00,
2013-07-05 11:27:00,78.1,71.8,30.08,East,86,0.0,2.0,81,0.00,,,0.27,WeatherCatV1.15B25,2013-07-05 15:27:00,
2013-07-05 11:32:00,79.0,72.7,30.08,South,171,1.0,3.0,81,0.00,,,0.27,WeatherCatV1.15B25,2013-07-05 15:32:00,
2013-07-05 11:37:00,79.0,71.5,30.08,South,178,4.0,4.0,78,0.00,,,0.27,WeatherCatV1.15B25,2013-07-05 15:37:00,
2013-07-05 11:43:00,78.5,70.3,30.08,SSW,192,1.0,5.0,76,0.00,,,0.27,WeatherCatV1.15B25,2013-07-05 15:43:00,
2013-07-05 11:48:00,78.1,69.9,30.09,SSW,211,1.0,1.0,76,0.00,,,0.27,WeatherCatV1.15B25,2013-07-05 15:48:00,
2013-07-05 11:53:00,78.0,69.8,30.09,South,190,3.0,4.0,76,0.00,,,0.27,WeatherCatV1.15B25,2013-07-05 15:53:00,
2013-07-05 11:57:00,78.3,70.5,30.09,SW,214,2.0,4.0,77,0.00,,,0.27,WeatherCatV1.15B25,2013-07-05 15:57:00,
2013-07-05 12:02:00,78.1,69.1,30.09,South,185,2.0,3.0,74,0.00,,,0.27,WeatherCatV1.15B25,2013-07-05 16:02:00,
2013-07-05 12:07:00,78.1,69.5,30.09,South,185,3.0,3.0,75,0.00,,,0.27,WeatherCatV1.15B25,2013-07-05 16:07:00,
2013-07-05 12:12:00,78.1,69.9,30.09,SSW,196,2.0,4.0,76,0.00,,,0.27,WeatherCatV1.15B25,2013-07-05 16:12:00,
2013-07-05 12:17:00,78.4,70.2,30.09,WNW,288,4.0,4.0,76,0.00,,,0.27,WeatherCatV1.15B25,2013-07-05 16:17:00,
2013-07-05 12:22:00,78.4,69.8,30.09,West,267,0.0,1.0,75,0.00,,,0.27,WeatherCatV1.15B25,2013-07-05 16:22:00,
2013-07-05 12:27:00,78.4,69.8,30.09,WSW,252,2.0,4.0,75,0.00,,,0.27,WeatherCatV1.15B25,2013-07-05 16:27:00,
2013-07-05 12:32:00,77.9,69.3,30.09,WSW,247,2.0,6.0,75,0.00,,,0.27,WeatherCatV1.15B25,2013-07-05 16:32:00,
2013-07-05 12:37:00,77.5,69.7,30.09,West,268,2.0,3.0,77,0.00,,,0.28,WeatherCatV1.15B25,2013-07-05 16:37:00,
2013-07-05 12:42:00,77.0,69.6,30.09,West,279,1.0,4.0,78,0.00,,,0.28,WeatherCatV1.15B25,2013-07-05 16:42:00,
2013-07-05 12:47:00,76.7,69.7,30.09,WSW,255,1.0,4.0,79,0.00,,,0.28,WeatherCatV1.15B25,2013-07-05 16:47:00,
2013-07-05 12:52:00,76.7,70.4,30.10,WSW,250,0.0,0.0,81,0.00,,,0.28,WeatherCatV1.15B25,2013-07-05 16:52:00,
2013-07-05 12:57:00,76.8,70.5,30.10,SW,226,0.0,2.0,81,0.00,,,0.28,WeatherCatV1.15B25,2013-07-05 16:57:00,
2013-07-05 13:02:00,77.0,70.7,30.10,SSW,194,0.0,2.0,81,0.00,,,0.28,WeatherCatV1.15B25,2013-07-05 17:02:00,
2013-07-05 13:07:00,77.2,70.9,30.09,SSW,198,2.0,3.0,81,0.00,,,0.28,WeatherCatV1.15B25,2013-07-05 17:07:00,
2013-07-05 13:12:00,76.9,69.9,30.09,West,275,1.0,5.0,79,0.00,,,0.28,WeatherCatV1.15B25,2013-07-05 17:12:00,
2013-07-05 13:17:00,76.4,69.8,30.09,West,269,3.0,3.0,80,0.00,,,0.28,WeatherCatV1.15B25,2013-07-05 17:17:00,
2013-07-05 13:22:00,75.9,69.6,30.09,West,269,0.0,2.0,81,0.00,,,0.28,WeatherCatV1.15B25,2013-07-05 17:22:00,
2013-07-05 13:27:00,75.8,69.9,30.09,West,269,0.0,2.0,82,0.00,,,0.28,WeatherCatV1.15B25,2013-07-05 17:27:00,
2013-07-05 13:32:00,75.6,69.7,30.09,WSW,246,3.0,3.0,82,0.00,,,0.28,WeatherCatV1.15B25,2013-07-05 17:32:00,
2013-07-05 13:37:00,75.4,69.5,30.09,SW,216,2.0,4.0,82,0.00,,,0.28,WeatherCatV1.15B25,2013-07-05 17:37:00,
2013-07-05 13:42:00,75.2,69.3,30.09,WSW,246,2.0,4.0,82,0.00,,,0.28,WeatherCatV1.15B25,2013-07-05 17:42:00,
2013-07-05 13:47:00,75.3,69.4,30.09,WSW,244,2.0,3.0,82,0.00,,,0.28,WeatherCatV1.15B25,2013-07-05 17:47:00,
2013-07-05 13:52:00,74.8,68.9,30.08,West,278,3.0,5.0,82,0.00,,,0.28,WeatherCatV1.15B25,2013-07-05 17:52:00,
2013-07-05 13:57:00,74.7,69.2,30.08,West,279,3.0,5.0,83,0.00,,,0.28,WeatherCatV1.15B25,2013-07-05 17:57:00,
2013-07-05 14:02:00,74.9,69.0,30.08,West,263,2.0,3.0,82,0.00,,,0.28,WeatherCatV1.15B25,2013-07-05 18:02:00,
2013-07-05 14:07:00,75.2,69.3,30.08,West,261,1.0,4.0,82,0.00,,,0.28,WeatherCatV1.15B25,2013-07-05 18:07:00,
2013-07-05 14:12:00,75.6,70.1,30.08,West,264,2.0,3.0,83,0.00,,,0.28,WeatherCatV1.15B25,2013-07-05 18:12:00,
2013-07-05 14:14:00,76.0,70.1,30.08,WSW,250,4.0,4.0,82,0.00,,,0.28,WeatherCatV1.15B25,2013-07-05 18:14:00,
2013-07-05 14:19:00,76.2,69.6,30.08,WSW,254,3.0,4.0,80,0.00,,,0.28,WeatherCatV1.15B25,2013-07-05 18:19:00,
2013-07-05 14:24:00,76.4,69.8,30.08,West,259,2.0,4.0,80,0.00,,,0.28,WeatherCatV1.15B25,2013-07-05 18:24:00,
2013-07-05 14:29:00,76.2,68.8,30.08,West,260,2.0,5.0,78,0.00,,,0.28,WeatherCatV1.15B25,2013-07-05 18:29:00,
2013-07-05 14:31:00,75.9,68.5,30.08,SW,216,3.0,6.0,78,0.00,,,0.28,WeatherCatV1.15B25,2013-07-05 18:31:00,
2013-07-05 14:36:00,75.3,67.9,30.08,West,275,2.0,4.0,78,0.00,,,0.28,WeatherCatV1.15B25,2013-07-05 18:36:00,
2013-07-05 14:41:00,75.0,68.0,30.08,WSW,244,4.0,4.0,79,0.00,,,0.28,WeatherCatV1.15B25,2013-07-05 18:41:00,
2013-07-05 14:42:00,75.0,67.7,30.08,WNW,288,1.0,4.0,78,0.00,,,0.28,WeatherCatV1.15B25,2013-07-05 18:42:00,
2013-07-05 14:47:00,75.1,67.8,30.08,SW,219,2.0,3.0,78,0.00,,,0.28,WeatherCatV1.15B25,2013-07-05 18:47:00,
2013-07-05 14:52:00,74.9,67.6,30.08,SW,233,1.0,5.0,78,0.00,,,0.28,WeatherCatV1.15B25,2013-07-05 18:52:00,
2013-07-05 14:57:00,74.5,66.8,30.08,SW,218,2.0,6.0,77,0.00,,,0.28,WeatherCatV1.15B25,2013-07-05 18:57:00,
2013-07-05 15:02:00,74.1,66.8,30.08,West,269,2.0,3.0,78,0.00,,,0.28,WeatherCatV1.15B25,2013-07-05 19:02:00,
2013-07-05 15:03:00,74.2,66.9,30.08,West,268,4.0,4.0,78,0.00,,,0.28,WeatherCatV1.15B25,2013-07-05 19:03:00,
2013-07-05 15:08:00,74.1,67.2,30.08,WSW,238,3.0,4.0,79,0.00,,,0.28,WeatherCatV1.15B25,2013-07-05 19:08:00,
2013-07-05 15:13:00,74.5,67.5,30.08,WSW,254,2.0,6.0,79,0.00,,,0.28,WeatherCatV1.15B25,2013-07-05 19:13:00,
2013-07-05 15:18:00,75.2,68.2,30.08,WSW,242,2.0,4.0,79,0.00,,,0.28,WeatherCatV1.15B25,2013-07-05 19:18:00,
2013-07-05 15:21:00,75.3,67.9,30.08,SW,227,2.0,9.0,78,0.00,,,0.28,WeatherCatV1.15B25,2013-07-05 19:21:00,
2013-07-05 15:26:00,74.9,67.2,30.08,SW,231,3.0,7.0,77,0.00,,,0.28,WeatherCatV1.15B25,2013-07-05 19:26:00,
2013-07-05 15:31:00,74.4,67.1,30.08,SW,232,2.0,4.0,78,0.00,,,0.28,WeatherCatV1.15B25,2013-07-05 19:31:00,
2013-07-05 15:36:00,74.0,67.4,30.08,WSW,254,2.0,2.0,80,0.00,,,0.28,WeatherCatV1.15B25,2013-07-05 19:36:00,
2013-07-05 15:41:00,74.1,67.5,30.08,West,267,2.0,7.0,80,0.00,,,0.28,WeatherCatV1.15B25,2013-07-05 19:41:00,
2013-07-05 15:46:00,74.5,68.3,30.08,WNW,295,2.0,5.0,81,0.00,,,0.28,WeatherCatV1.15B25,2013-07-05 19:46:00,
2013-07-05 15:51:00,74.5,68.6,30.07,SW,232,4.0,7.0,82,0.00,,,0.28,WeatherCatV1.15B25,2013-07-05 19:51:00,
2013-07-05 15:56:00,74.3,68.8,30.07,West,265,3.0,4.0,83,0.00,,,0.28,WeatherCatV1.15B25,2013-07-05 19:56:00,
2013-07-05 16:01:00,73.9,68.4,30.07,WSW,247,6.0,6.0,83,0.00,,,0.28,WeatherCatV1.15B25,2013-07-05 20:01:00,
2013-07-05 16:06:00,73.2,68.1,30.07,SW,236,2.0,11.0,84,0.00,,,0.29,WeatherCatV1.15B25,2013-07-05 20:06:00,
2013-07-05 16:11:00,72.6,68.2,30.08,WNW,296,5.0,5.0,86,0.12,,,0.30,WeatherCatV1.15B25,2013-07-05 20:11:00,
2013-07-05 16:16:00,72.2,68.1,30.08,WSW,242,3.0,7.0,87,0.06,,,0.30,WeatherCatV1.15B25,2013-07-05 20:16:00,
2013-07-05 16:21:00,72.1,68.0,30.08,WNW,282,2.0,4.0,87,0.04,,,0.30,WeatherCatV1.15B25,2013-07-05 20:21:00,
2013-07-05 16:26:00,72.2,68.4,30.08,SW,236,0.0,0.0,88,0.00,,,0.30,WeatherCatV1.15B25,2013-07-05 20:26:00,
2013-07-05 16:31:00,72.7,69.3,30.08,West,267,2.0,2.0,89,0.00,,,0.30,WeatherCatV1.15B25,2013-07-05 20:31:00,
2013-07-05 16:36:00,72.8,68.7,30.08,West,260,3.0,5.0,87,0.00,,,0.30,WeatherCatV1.15B25,2013-07-05 20:36:00,
2013-07-05 16:41:00,73.1,69.0,30.07,SW,225,2.0,4.0,87,0.00,,,0.30,WeatherCatV1.15B25,2013-07-05 20:41:00,
2013-07-05 16:46:00,73.7,69.9,30.07,SW,232,0.0,1.0,88,0.00,,,0.30,WeatherCatV1.15B25,2013-07-05 20:46:00,
2013-07-05 16:51:00,74.3,69.8,30.07,SW,236,3.0,4.0,86,0.00,,,0.30,WeatherCatV1.15B25,2013-07-05 20:51:00,
2013-07-05 16:56:00,74.4,69.2,30.07,WSW,244,3.0,5.0,84,0.00,,,0.30,WeatherCatV1.15B25,2013-07-05 20:56:00,
2013-07-05 17:01:00,74.3,68.8,30.07,WSW,246,3.0,5.0,83,0.00,,,0.30,WeatherCatV1.15B25,2013-07-05 21:01:00,
2013-07-05 17:06:00,74.4,68.9,30.07,SW,218,3.0,3.0,83,0.00,,,0.30,WeatherCatV1.15B25,2013-07-05 21:06:00,
2013-07-05 17:11:00,74.4,68.5,30.07,West,279,1.0,2.0,82,0.00,,,0.30,WeatherCatV1.15B25,2013-07-05 21:11:00,
2013-07-05 17:16:00,74.4,68.5,30.07,West,275,2.0,3.0,82,0.00,,,0.30,WeatherCatV1.15B25,2013-07-05 21:16:00,
2013-07-05 17:21:00,74.1,67.9,30.07,WSW,254,1.0,2.0,81,0.00,,,0.30,WeatherCatV1.15B25,2013-07-05 21:21:00,
2013-07-05 17:26:00,74.1,68.2,30.07,WSW,238,0.0,0.0,82,0.00,,,0.30,WeatherCatV1.15B25,2013-07-05 21:26:00,
2013-07-05 17:31:00,74.3,68.4,30.06,WSW,249,2.0,4.0,82,0.00,,,0.30,WeatherCatV1.15B25,2013-07-05 21:31:00,
2013-07-05 17:32:00,74.3,68.4,30.06,WSW,241,2.0,4.0,82,0.00,,,0.30,WeatherCatV1.15B25,2013-07-05 21:32:00,
2013-07-05 17:37:00,75.0,68.8,30.06,SW,224,2.0,4.0,81,0.00,,,0.30,WeatherCatV1.15B25,2013-07-05 21:37:00,
2013-07-05 17:42:00,76.0,69.0,30.06,SW,233,2.0,2.0,79,0.00,,,0.30,WeatherCatV1.15B25,2013-07-05 21:42:00,
2013-07-05 17:47:00,77.0,70.0,30.06,SW,227,4.0,4.0,79,0.00,,,0.30,WeatherCatV1.15B25,2013-07-05 21:47:00,
2013-07-05 17:52:00,77.3,69.1,30.05,SW,230,3.0,4.0,76,0.00,,,0.30,WeatherCatV1.15B25,2013-07-05 21:52:00,
2013-07-05 17:57:00,77.2,68.3,30.05,SW,220,1.0,3.0,74,0.00,,,0.30,WeatherCatV1.15B25,2013-07-05 21:57:00,
2013-07-05 18:02:00,77.5,68.5,30.05,West,269,2.0,3.0,74,0.00,,,0.30,WeatherCatV1.15B25,2013-07-05 22:02:00,
2013-07-05 18:07:00,77.6,68.2,30.05,WSW,253,1.0,5.0,73,0.00,,,0.30,WeatherCatV1.15B25,2013-07-05 22:07:00,
2013-07-05 18:12:00,77.8,68.4,30.05,SW,219,4.0,4.0,73,0.00,,,0.30,WeatherCatV1.15B25,2013-07-05 22:12:00,
2013-07-05 18:17:00,77.7,67.9,30.05,SW,227,2.0,5.0,72,0.00,,,0.30,WeatherCatV1.15B25,2013-07-05 22:17:00,
2013-07-05 18:22:00,78.1,68.3,30.05,West,261,2.0,3.0,72,0.00,,,0.30,WeatherCatV1.15B25,2013-07-05 22:22:00,
2013-07-05 18:27:00,78.0,68.2,30.05,West,274,2.0,2.0,72,0.00,,,0.30,WeatherCatV1.15B25,2013-07-05 22:27:00,
2013-07-05 18:32:00,77.7,67.9,30.05,West,277,3.0,4.0,72,0.00,,,0.30,WeatherCatV1.15B25,2013-07-05 22:32:00,
2013-07-05 18:36:00,77.4,67.6,30.05,SW,222,2.0,3.0,72,0.00,,,0.30,WeatherCatV1.15B25,2013-07-05 22:36:00,
2013-07-05 18:41:00,77.1,67.4,30.05,WSW,250,2.0,3.0,72,0.00,,,0.30,WeatherCatV1.15B25,2013-07-05 22:41:00,
2013-07-05 18:46:00,76.6,67.3,30.05,WSW,240,1.0,2.0,73,0.00,,,0.30,WeatherCatV1.15B25,2013-07-05 22:46:00,
2013-07-05 18:51:00,76.8,67.5,30.05,WSW,238,2.0,3.0,73,0.00,,,0.30,WeatherCatV1.15B25,2013-07-05 22:51:00,
2013-07-05 18:56:00,76.6,66.9,30.05,West,266,0.0,2.0,72,0.00,,,0.30,WeatherCatV1.15B25,2013-07-05 22:56:00,
2013-07-05 19:01:00,76.3,67.4,30.06,SW,234,2.0,2.0,74,0.00,,,0.30,WeatherCatV1.15B25,2013-07-05 23:01:00,
2013-07-05 19:06:00,76.5,67.6,30.06,SW,234,0.0,1.0,74,0.00,,,0.30,WeatherCatV1.15B25,2013-07-05 23:06:00,
2013-07-05 19:11:00,76.7,68.2,30.06,West,277,2.0,2.0,75,0.00,,,0.30,WeatherCatV1.15B25,2013-07-05 23:11:00,
2013-07-05 19:16:00,76.6,67.7,30.06,West,271,1.0,3.0,74,0.00,,,0.30,WeatherCatV1.15B25,2013-07-05 23:16:00,
2013-07-05 19:21:00,76.3,67.8,30.06,West,271,1.0,2.0,75,0.00,,,0.30,WeatherCatV1.15B25,2013-07-05 23:21:00,
2013-07-05 19:26:00,76.2,67.7,30.06,WSW,248,1.0,1.0,75,0.00,,,0.30,WeatherCatV1.15B25,2013-07-05 23:26:00,
2013-07-05 19:31:00,75.9,67.4,30.06,WSW,248,1.0,2.0,75,0.00,,,0.30,WeatherCatV1.15B25,2013-07-05 23:31:00,
2013-07-05 19:36:00,75.7,67.2,30.06,WSW,248,0.0,0.0,75,0.00,,,0.30,WeatherCatV1.15B25,2013-07-05 23:36:00,
2013-07-05 19:41:00,75.6,67.1,30.06,WSW,248,2.0,2.0,75,0.00,,,0.30,WeatherCatV1.15B25,2013-07-05 23:41:00,
2013-07-05 19:46:00,75.4,67.3,30.06,WNW,282,2.0,2.0,76,0.00,,,0.30,WeatherCatV1.15B25,2013-07-05 23:46:00,
2013-07-05 19:51:00,75.2,67.1,30.06,West,281,0.0,0.0,76,0.00,,,0.30,WeatherCatV1.15B25,2013-07-05 23:51:00,
2013-07-05 19:56:00,74.9,67.2,30.06,WNW,282,0.0,1.0,77,0.00,,,0.30,WeatherCatV1.15B25,2013-07-05 23:56:00,
2013-07-05 20:01:00,74.6,66.9,30.06,West,281,0.0,2.0,77,0.00,,,0.30,WeatherCatV1.15B25,2013-07-06 00:01:00,
2013-07-05 20:06:00,74.4,66.7,30.06,WNW,282,0.0,2.0,77,0.00,,,0.30,WeatherCatV1.15B25,2013-07-06 00:06:00,
2013-07-05 20:11:00,74.3,67.0,30.06,West,281,0.0,0.0,78,0.00,,,0.30,WeatherCatV1.15B25,2013-07-06 00:11:00,
2013-07-05 20:16:00,74.3,67.4,30.06,West,281,0.0,0.0,79,0.00,,,0.30,WeatherCatV1.15B25,2013-07-06 00:16:00,
2013-07-05 20:21:00,74.3,67.7,30.06,WNW,282,0.0,0.0,80,0.00,,,0.30,WeatherCatV1.15B25,2013-07-06 00:21:00,
2013-07-05 20:26:00,74.1,67.5,30.06,WNW,282,0.0,0.0,80,0.00,,,0.30,WeatherCatV1.15B25,2013-07-06 00:26:00,
2013-07-05 20:31:00,74.0,67.8,30.06,West,281,0.0,0.0,81,0.00,,,0.30,WeatherCatV1.15B25,2013-07-06 00:31:00,
2013-07-05 20:36:00,73.9,67.3,30.07,WNW,282,0.0,0.0,80,0.00,,,0.30,WeatherCatV1.15B25,2013-07-06 00:36:00,
2013-07-05 20:41:00,73.8,67.2,30.07,WNW,282,0.0,0.0,80,0.00,,,0.30,WeatherCatV1.15B25,2013-07-06 00:41:00,
2013-07-05 20:46:00,73.7,67.5,30.07,West,281,0.0,0.0,81,0.00,,,0.30,WeatherCatV1.15B25,2013-07-06 00:46:00,
2013-07-05 20:51:00,73.6,67.8,30.07,West,281,0.0,0.0,82,0.00,,,0.30,WeatherCatV1.15B25,2013-07-06 00:51:00,
2013-07-05 20:56:00,73.5,67.3,30.07,WNW,282,0.0,0.0,81,0.00,,,0.30,WeatherCatV1.15B25,2013-07-06 00:56:00,
2013-07-05 21:01:00,73.4,67.9,30.07,West,281,0.0,0.0,83,0.00,,,0.30,WeatherCatV1.15B25,2013-07-06 01:01:00,
2013-07-05 21:06:00,73.3,67.8,30.07,West,281,0.0,0.0,83,0.00,,,0.30,WeatherCatV1.15B25,2013-07-06 01:06:00,
2013-07-05 21:11:00,73.2,67.7,30.07,WNW,282,0.0,0.0,83,0.00,,,0.30,WeatherCatV1.15B25,2013-07-06 01:11:00,
2013-07-05 21:16:00,73.0,67.5,30.07,WNW,282,0.0,0.0,83,0.00,,,0.30,WeatherCatV1.15B25,2013-07-06 01:16:00,
2013-07-05 21:21:00,72.8,67.3,30.07,WNW,282,0.0,0.0,83,0.00,,,0.30,WeatherCatV1.15B25,2013-07-06 01:21:00,
2013-07-05 21:26:00,72.7,67.2,30.07,West,281,0.0,0.0,83,0.00,,,0.30,WeatherCatV1.15B25,2013-07-06 01:26:00,
2013-07-05 21:31:00,72.5,67.4,30.08,WNW,282,0.0,0.0,84,0.00,,,0.30,WeatherCatV1.15B25,2013-07-06 01:31:00,
2013-07-05 21:36:00,72.4,67.3,30.08,WNW,282,0.0,0.0,84,0.00,,,0.30,WeatherCatV1.15B25,2013-07-06 01:36:00,
2013-07-05 21:41:00,72.2,67.1,30.08,WNW,282,0.0,0.0,84,0.00,,,0.30,WeatherCatV1.15B25,2013-07-06 01:41:00,
2013-07-05 21:46:00,72.1,67.0,30.08,West,281,0.0,0.0,84,0.00,,,0.30,WeatherCatV1.15B25,2013-07-06 01:46:00,
2013-07-05 21:51:00,71.9,66.8,30.08,West,281,0.0,0.0,84,0.00,,,0.30,WeatherCatV1.15B25,2013-07-06 01:51:00,
2013-07-05 21:56:00,71.8,67.0,30.08,WNW,282,0.0,0.0,85,0.00,,,0.30,WeatherCatV1.15B25,2013-07-06 01:56:00,
2013-07-05 22:01:00,71.7,66.9,30.08,West,281,0.0,0.0,85,0.00,,,0.30,WeatherCatV1.15B25,2013-07-06 02:01:00,
2013-07-05 22:06:00,71.5,66.7,30.08,WNW,282,0.0,0.0,85,0.00,,,0.30,WeatherCatV1.15B25,2013-07-06 02:06:00,
2013-07-05 22:11:00,71.4,67.0,30.08,WNW,282,0.0,0.0,86,0.00,,,0.30,WeatherCatV1.15B25,2013-07-06 02:11:00,
2013-07-05 22:16:00,71.3,66.9,30.08,WNW,282,0.0,0.0,86,0.00,,,0.30,WeatherCatV1.15B25,2013-07-06 02:16:00,
2013-07-05 22:21:00,71.2,66.8,30.08,WNW,282,0.0,0.0,86,0.00,,,0.30,WeatherCatV1.15B25,2013-07-06 02:21:00,
2013-07-05 22:26:00,71.1,67.0,30.08,WNW,282,0.0,0.0,87,0.00,,,0.30,WeatherCatV1.15B25,2013-07-06 02:26:00,
2013-07-05 22:31:00,70.9,66.8,30.08,WNW,282,0.0,0.0,87,0.00,,,0.30,WeatherCatV1.15B25,2013-07-06 02:31:00,
2013-07-05 22:36:00,70.8,67.1,30.08,West,281,0.0,0.0,88,0.00,,,0.30,WeatherCatV1.15B25,2013-07-06 02:36:00,
2013-07-05 22:41:00,70.7,66.6,30.08,WNW,282,0.0,0.0,87,0.00,,,0.30,WeatherCatV1.15B25,2013-07-06 02:41:00,
2013-07-05 22:46:00,70.6,66.9,30.09,WNW,282,0.0,0.0,88,0.00,,,0.30,WeatherCatV1.15B25,2013-07-06 02:46:00,
2013-07-05 22:51:00,70.5,66.8,30.09,WNW,282,0.0,0.0,88,0.00,,,0.30,WeatherCatV1.15B25,2013-07-06 02:51:00,
2013-07-05 22:56:00,70.4,66.7,30.08,West,281,0.0,0.0,88,0.00,,,0.30,WeatherCatV1.15B25,2013-07-06 02:56:00,
2013-07-05 23:01:00,70.3,66.6,30.08,West,281,0.0,0.0,88,0.00,,,0.30,WeatherCatV1.15B25,2013-07-06 03:01:00,
2013-07-05 23:06:00,70.3,66.9,30.08,WNW,282,0.0,0.0,89,0.00,,,0.30,WeatherCatV1.15B25,2013-07-06 03:06:00,
2013-07-05 23:11:00,70.3,66.9,30.08,West,281,0.0,0.0,89,0.00,,,0.30,WeatherCatV1.15B25,2013-07-06 03:11:00,
2013-07-05 23:16:00,70.3,66.9,30.08,West,281,0.0,0.0,89,0.00,,,0.30,WeatherCatV1.15B25,2013-07-06 03:16:00,
2013-07-05 23:21:00,70.2,66.8,30.08,WNW,282,0.0,0.0,89,0.00,,,0.30,WeatherCatV1.15B25,2013-07-06 03:21:00,
2013-07-05 23:26:00,70.2,66.8,30.09,WNW,282,0.0,0.0,89,0.00,,,0.30,WeatherCatV1.15B25,2013-07-06 03:26:00,
2013-07-05 23:31:00,70.2,66.8,30.09,West,281,0.0,0.0,89,0.00,,,0.30,WeatherCatV1.15B25,2013-07-06 03:31:00,
2013-07-05 23:36:00,70.2,66.8,30.09,West,281,0.0,0.0,89,0.00,,,0.30,WeatherCatV1.15B25,2013-07-06 03:36:00,
2013-07-05 23:41:00,70.2,66.8,30.09,WNW,282,0.0,0.0,89,0.00,,,0.30,WeatherCatV1.15B25,2013-07-06 03:41:00,
2013-07-05 23:46:00,70.1,67.0,30.09,WNW,282,0.0,0.0,90,0.00,,,0.30,WeatherCatV1.15B25,2013-07-06 03:46:00,
2013-07-05 23:51:00,70.1,67.0,30.09,West,281,0.0,0.0,90,0.00,,,0.30,WeatherCatV1.15B25,2013-07-06 03:51:00,
2013-07-05 23:56:00,70.0,66.9,30.09,WNW,282,0.0,0.0,90,0.00,,,0.30,WeatherCatV1.15B25,2013-07-06 03:56:00,